[[{"header":{"parameterUnit":"m.s-1","parameterCategory":1,"la1":30.2991,"la2":30.254,"lo1":-89.0895,"lo2":-89.0444,"dy":0.0017,"dx":0.0017,"nx":28,"ny":28,"refTime":"2025-06-01T09:00:00:Z","depth":0,"parameterNumber":2,"parameterNumberName":"U-component_of_WINDS"},"data":[0,0,0,0,0,0,0,0,0,0,0,0,0,0,0,0,0,0,0,0,0,0,0,0,0,0,0,0,0,0,0,0,0,0,0,0,0,0,0,0,0,0,0,0,0,0,0,0,0,0,0,0,0,0,0,0,0,0,-2.472,-2.472,0,-2.4772,-2.4772,-2.4773,-2.4717,-2.4715,-2.4713,-2.4711,-2.4765,-2.4769,-2.4772,0,0,0,0,0,0,0,0,0,0,0,0,0,-2.4573,-2.4576,-2.472,-2.4721,-2.4721,-2.4772,-2.4772,-2.4773,-2.4718,-2.4715,-2.4712,-2.471,-2.4764,-2.4768,-2.4772,0,0,0,0,0,0,0,0,0,0,0,0,0,-2.4632,-2.4577,-2.472,-2.47,-2.4698,-2.4771,-2.4772,-2.4773,-2.4718,-2.4715,-2.4712,-2.4709,-2.4763,-2.4768,-2.4773,-2.4869,0,0,-2.4789,-2.4791,0,0,0,0,0,0,0,0,-2.4629,-2.4638,-2.4702,-2.4701,-2.47,-2.4735,-2.474,-2.4805,-2.4719,-2.4711,-2.4711,-2.4707,-2.4758,-2.4763,-2.478,-2.4871,-2.4874,-2.4789,-2.4792,-2.4794,-2.4796,0,0,0,0,0,0,0,-2.4625,-2.4635,-2.474,-2.4703,-2.4702,-2.4688,-2.4693,-2.4753,-2.4752,-2.4711,-2.4707,-2.4714,-2.4757,-2.4775,-2.4781,-2.4875,-2.4789,-2.4794,-2.4797,-2.4799,-2.5046,-2.5049,0,0,0,0,0,0,-2.4623,-2.4632,-2.4739,-2.4742,-2.4656,-2.4693,-2.4699,-2.4727,-2.4751,-2.4751,-2.4717,-2.4711,-2.4768,-2.4775,-2.4783,-2.4895,-2.4794,-2.4799,-2.4802,-2.5043,-2.5047,-2.5051,0,0,0,0,0,0,-2.462,-2.4633,-2.4737,-2.4686,-2.4698,-2.4699,-2.4731,-2.473,-2.4748,-2.4755,-2.4755,-2.4736,-2.4766,-2.4775,-2.4847,-2.4897,-2.4802,-2.4806,-2.5039,-2.5044,-2.5049,-2.5123,0,0,0,0,0,0,-2.4616,-2.4632,-2.4669,-2.4687,-2.4701,-2.4801,-2.4734,-2.4733,-2.4757,-2.475,-2.4773,-2.4774,-2.4764,-2.484,-2.4853,-2.4902,-2.481,-2.5034,-2.5041,-2.5047,-2.5116,-2.513,-2.5142,0,0,0,0,0,-2.4611,-2.4688,-2.4671,-2.4684,-2.4747,-2.4804,-2.4812,-2.4799,-2.4761,-2.4798,-2.4802,-2.4773,-2.4889,-2.4848,-2.4862,-2.4913,-2.5031,-2.5039,-2.5047,-2.511,-2.5127,-2.5142,0,0,0,0,0,0,-2.4676,-2.469,-2.4671,-2.4757,-2.4779,-2.4794,-2.484,-2.4817,-2.4852,-2.4844,-2.4827,-2.4832,-2.4909,-2.4918,-2.4872,-2.5007,-2.4954,-2.4965,-2.4998,-2.5014,-2.5027,-2.5022,-2.4815,0,0,0,0,0,-2.47,-2.4745,-2.4755,-2.483,-2.4842,-2.4839,-2.4864,-2.4852,-2.4875,-2.4884,-2.4894,-2.4918,-2.4959,-2.4987,-2.5026,-2.5117,-2.5121,-2.516,-2.5172,-2.5183,-2.5192,-2.524,-2.5257,-2.5076,-2.5076,-2.5076,0,0,-2.4751,-2.4764,-2.4794,-2.4843,-2.4859,-2.4906,-2.4848,-2.49,-2.4935,-2.4892,-2.496,-2.4969,-2.4994,-2.5076,-2.5112,-2.5086,-2.5243,-2.5193,-2.5201,-2.5205,-2.525,-2.5267,-2.5283,-2.5082,-2.5081,-2.508,0,0,-2.4867,-2.4882,-2.4944,-2.4962,-2.4987,-2.4984,-2.4999,-2.5018,-2.5021,-2.5089,-2.5058,-2.5099,-2.5172,-2.5191,-2.521,-2.5332,-2.5307,-2.5346,-2.5413,-2.546,-2.5474,-2.5487,-2.553,-2.5545,-2.5355,-2.5355,-2.5356,0,-2.4927,-2.4996,-2.498,-2.5034,-2.5056,-2.5019,-2.5083,-2.51,-2.5137,-2.5154,-2.5124,-2.5213,-2.5228,-2.5313,-2.5343,-2.536,-2.5376,-2.5343,-2.5473,-2.5486,-2.5497,-2.5538,-2.5554,-2.536,-2.5359,-2.5359,-2.5359,0,-2.5067,-2.5116,-2.5164,-2.5199,-2.5227,-2.5286,-2.5279,-2.5309,-2.5294,-2.5295,-2.5364,-2.5381,-2.5422,-2.5441,-2.5428,-2.5524,-2.5507,-2.5476,-2.5422,-2.5519,-2.5557,-2.5573,-2.5366,-2.5365,-2.5363,-2.5362,0,0,-2.5226,-2.5251,-2.5269,-2.5284,-2.5309,-2.5346,-2.5403,-2.5442,-2.5468,-2.5495,-2.5541,-2.5603,-2.5574,-2.5596,-2.5584,-2.5626,-2.572,-2.5589,-2.5589,-2.5612,-2.5827,-2.585,-2.5868,-2.5704,-2.5707,-2.5709,-2.5824,0,-2.5341,-2.5439,-2.5426,-2.552,-2.5564,-2.553,-2.5579,-2.5599,-2.5602,-2.5639,-2.5642,-2.5686,-2.5644,-2.5657,-2.5696,-2.5701,-2.5763,-2.5692,-2.5747,-2.5749,-2.5741,-2.5888,-2.5913,-2.6021,-2.5839,-2.5842,-2.5843,0,-2.5489,-2.552,-2.5618,-2.5635,-2.5653,-2.5698,-2.5732,-2.5769,-2.5791,-2.579,-2.5814,-2.5795,-2.5852,-2.5798,-2.5875,-2.5827,-2.5849,-2.5854,-2.5858,-2.5862,-2.5802,-2.5895,-2.6055,-2.6071,-2.5867,-2.5865,-2.5863,0,-2.5594,-2.566,-2.5727,-2.5741,-2.5763,-2.5795,-2.5805,-2.5824,-2.5848,-2.5879,-2.5894,-2.5932,-2.5952,-2.5981,-2.5973,-2.5934,-2.6052,-2.5997,-2.6052,-2.6052,-2.6078,-2.6076,-2.6243,-2.6094,-2.6093,-2.6093,-2.6093,0,-2.5724,-2.5785,-2.5774,-2.5815,-2.5883,-2.5867,-2.5934,-2.5941,-2.5958,-2.5999,-2.5972,-2.6012,-2.5998,-2.6038,-2.6031,-2.6096,-2.6106,-2.6106,-2.6104,-2.6108,-2.6108,-2.6122,-2.6114,-2.6097,-2.6096,-2.6095,-2.6095,0,-2.5852,-2.5847,-2.5918,-2.5932,-2.5937,-2.5986,-2.5998,-2.6036,-2.6036,-2.6089,-2.6101,-2.61,-2.6145,-2.6139,-2.6189,-2.6185,-2.6265,-2.6254,-2.6258,-2.6255,-2.631,-2.6304,-2.649,-2.6513,-2.635,-2.6351,-2.6353,0,-2.5935,-2.5981,-2.6,-2.6025,-2.6038,-2.608,-2.6104,-2.609,-2.6117,-2.6145,-2.618,-2.6222,-2.6255,-2.6328,-2.6332,-2.637,-2.6359,-2.6422,-2.6365,-2.6368,-2.6359,-2.6356,-2.636,-2.6433,-2.6435,-2.6436,-2.6437,0,-2.6083,-2.6078,-2.6113,-2.6148,-2.6178,-2.6205,-2.6229,-2.6252,-2.6241,-2.6272,-2.6317,-2.6342,-2.6392,-2.6434,-2.647,-2.648,-2.6457,-2.6455,-2.647,-2.6475,-2.6474,-2.6474,-2.6288,-2.6451,-2.645,-2.6449,-2.6448,-2.6447,-2.619,-2.6229,-2.6248,-2.6288,-2.6305,-2.6328,-2.6365,-2.6369,-2.6405,-2.6445,-2.6435,-2.6485,-2.6506,-2.6551,-2.6565,-2.6605,-2.6582,-2.6603,-2.6608,-2.6614,-2.662,-2.6469,-2.6611,-2.6611,-2.6611,-2.661,-2.661,0,-2.6336,-2.6346,-2.6383,-2.6417,-2.6449,-2.6424,-2.6449,-2.6478,-2.6522,-2.6543,-2.6575,-2.6626,-2.6666,-2.6674,-2.6712,-2.6742,-2.6732,-2.6753,-2.675,-2.6753,-2.6639,-2.6622,-2.676,-2.676,-2.676,-2.676,-2.676,-2.676,-2.6415,-2.6479,-2.6476,-2.6548,-2.6558,-2.6606,-2.6623,-2.6644,-2.666,-2.6718,-2.6751,-2.6755,-2.6771,-2.6809,-2.6845,-2.6846,-2.6861,-2.6886,-2.6883,-2.6776,-2.6761,-2.6747,-2.6731,-2.6889,-2.6889,-2.6993,-2.6994,-2.6995]},{"header":{"parameterUnit":"m.s-1","parameterCategory":1,"la1":30.2991,"la2":30.254,"lo1":-89.0895,"lo2":-89.0444,"dy":0.0017,"dx":0.0017,"nx":28,"ny":28,"refTime":"2025-06-01T09:00:00:Z","depth":0,"parameterNumber":3,"parameterNumberName":"V-component_of_WINDS"},"data":[0,0,0,0,0,0,0,0,0,0,0,0,0,0,0,0,0,0,0,0,0,0,0,0,0,0,0,0,0,0,0,0,0,0,0,0,0,0,0,0,0,0,0,0,0,0,0,0,0,0,0,0,0,0,0,0,0,0,1.7361,1.7361,0,1.7366,1.7366,1.7366,1.7343,1.7342,1.7342,1.7341,1.7346,1.7347,1.7347,0,0,0,0,0,0,0,0,0,0,0,0,0,1.7331,1.7331,1.7361,1.7361,1.7361,1.7366,1.7366,1.7366,1.7343,1.7342,1.7342,1.7341,1.7346,1.7347,1.7347,0,0,0,0,0,0,0,0,0,0,0,0,0,1.734,1.7331,1.7361,1.735,1.7349,1.7366,1.7366,1.7366,1.7343,1.7342,1.7341,1.734,1.7345,1.7346,1.7348,1.7374,0,0,1.7351,1.7351,0,0,0,0,0,0,0,0,1.734,1.7342,1.7352,1.7351,1.735,1.7353,1.7357,1.7369,1.7344,1.7346,1.7341,1.734,1.7349,1.735,1.7353,1.7374,1.7375,1.7351,1.7352,1.7352,1.7353,0,0,0,0,0,0,0,1.7339,1.7341,1.7362,1.7352,1.7351,1.7345,1.7345,1.7359,1.7353,1.7345,1.7344,1.7345,1.7348,1.7352,1.7353,1.7375,1.7351,1.7352,1.7353,1.7353,1.7417,1.7418,0,0,0,0,0,0,1.734,1.7341,1.7362,1.7363,1.7342,1.7346,1.7346,1.7353,1.7353,1.7352,1.7345,1.7343,1.735,1.7351,1.7353,1.7383,1.7352,1.7353,1.7354,1.7416,1.7417,1.7418,0,0,0,0,0,0,1.7339,1.7342,1.7362,1.7351,1.7353,1.7348,1.7355,1.7353,1.7357,1.7353,1.7351,1.735,1.735,1.7351,1.7369,1.7383,1.7354,1.7355,1.7415,1.7416,1.7418,1.7444,0,0,0,0,0,0,1.7339,1.7342,1.7352,1.7352,1.7354,1.7378,1.7356,1.7354,1.7359,1.7356,1.7357,1.7356,1.7349,1.7367,1.737,1.7384,1.7356,1.7414,1.7416,1.7417,1.7442,1.7446,1.745,0,0,0,0,0,1.7338,1.736,1.7353,1.7356,1.7367,1.7379,1.738,1.7372,1.736,1.737,1.7367,1.7356,1.7381,1.7369,1.7372,1.7386,1.7413,1.7415,1.7417,1.744,1.7445,1.745,0,0,0,0,0,0,1.7362,1.736,1.7352,1.7375,1.7377,1.7375,1.7388,1.7378,1.7385,1.7382,1.7372,1.7372,1.7391,1.7391,1.7377,1.7411,1.7395,1.7398,1.7411,1.7416,1.742,1.7419,1.7357,0,0,0,0,0,1.7371,1.7381,1.7378,1.7398,1.74,1.7394,1.7399,1.7392,1.7394,1.7395,1.7394,1.7396,1.7405,1.741,1.7418,1.7442,1.7441,1.7453,1.7457,1.746,1.7463,1.7474,1.7479,1.7426,1.7426,1.7426,0,0,1.7387,1.7387,1.7394,1.7403,1.7404,1.7415,1.7395,1.7407,1.7414,1.7397,1.7413,1.7412,1.7414,1.7435,1.7444,1.7435,1.7477,1.7463,1.7466,1.7466,1.7477,1.7482,1.7486,1.7428,1.7427,1.7427,0,0,1.7423,1.7424,1.744,1.7442,1.7444,1.744,1.7444,1.7443,1.7442,1.7458,1.7445,1.7453,1.7468,1.747,1.7473,1.7508,1.7498,1.7511,1.7532,1.7543,1.7547,1.7551,1.7562,1.7567,1.7514,1.7514,1.7514,0,1.7443,1.7459,1.745,1.7463,1.7466,1.7451,1.7467,1.7469,1.7474,1.7476,1.7467,1.7485,1.7485,1.7505,1.7514,1.7517,1.752,1.7511,1.7547,1.7551,1.7554,1.7565,1.7569,1.7515,1.7515,1.7515,1.7515,0,1.7483,1.7494,1.7507,1.7511,1.7516,1.7531,1.7524,1.753,1.7523,1.752,1.7535,1.7536,1.7542,1.7547,1.754,1.7565,1.756,1.7549,1.7532,1.7561,1.7571,1.7575,1.7518,1.7517,1.7517,1.7516,0,0,1.7534,1.7533,1.7537,1.7539,1.754,1.7548,1.7561,1.7568,1.7573,1.7576,1.7587,1.7599,1.7589,1.7592,1.7586,1.7596,1.7622,1.7584,1.7584,1.759,1.7649,1.7656,1.7661,1.7616,1.7617,1.7617,1.7648,0,1.7568,1.759,1.7582,1.7605,1.7614,1.76,1.7611,1.7613,1.761,1.7617,1.7614,1.7623,1.7609,1.7611,1.762,1.7617,1.7634,1.7615,1.7624,1.7625,1.7623,1.7666,1.7674,1.7703,1.7652,1.7653,1.7653,0,1.761,1.7615,1.7638,1.7636,1.764,1.765,1.7655,1.7663,1.7664,1.7661,1.7664,1.7656,1.7668,1.7652,1.7668,1.7655,1.7659,1.7658,1.7659,1.7658,1.764,1.7665,1.7712,1.7716,1.7659,1.7659,1.7658,0,1.7643,1.7655,1.767,1.7672,1.7671,1.7678,1.7678,1.7679,1.7683,1.7687,1.7689,1.7695,1.7698,1.7703,1.7695,1.7684,1.7712,1.7696,1.771,1.771,1.7715,1.7715,1.7762,1.772,1.772,1.772,1.772,0,1.768,1.7695,1.7685,1.7694,1.771,1.7701,1.7717,1.7715,1.7715,1.7723,1.7712,1.772,1.7711,1.7718,1.7713,1.7726,1.7728,1.7725,1.7724,1.7726,1.7726,1.7727,1.7724,1.7721,1.7721,1.772,1.772,0,1.7719,1.7714,1.7729,1.7726,1.7726,1.7738,1.7735,1.7743,1.774,1.775,1.7752,1.7746,1.7754,1.7748,1.7755,1.7752,1.7769,1.7765,1.7769,1.7767,1.7781,1.7779,1.7829,1.7835,1.7791,1.7791,1.7791,0,1.7743,1.7754,1.7752,1.7757,1.7757,1.7765,1.7769,1.776,1.7765,1.7767,1.7774,1.7781,1.7786,1.7799,1.7795,1.78,1.7796,1.7813,1.7796,1.7798,1.7794,1.7793,1.7793,1.7816,1.7816,1.7817,1.7817,0,1.7786,1.7782,1.7788,1.7792,1.7797,1.78,1.7803,1.7807,1.7798,1.7804,1.7811,1.7815,1.7822,1.7829,1.7833,1.7833,1.7823,1.7822,1.7826,1.7827,1.7828,1.7826,1.7776,1.7821,1.7821,1.782,1.782,1.782,1.7817,1.7825,1.7825,1.7831,1.7832,1.7834,1.7842,1.7839,1.7845,1.785,1.7844,1.7853,1.7853,1.7858,1.7859,1.7865,1.7858,1.7863,1.7864,1.7865,1.7867,1.7828,1.7866,1.7866,1.7866,1.7866,1.7866,0,1.7857,1.7856,1.7862,1.7866,1.7871,1.7861,1.7863,1.7868,1.7876,1.7877,1.7882,1.789,1.7896,1.7892,1.7898,1.7903,1.7899,1.7905,1.7904,1.7903,1.7873,1.7869,1.7908,1.7908,1.7908,1.7908,1.7908,1.7908,1.7879,1.7892,1.7888,1.7901,1.79,1.7908,1.791,1.7912,1.7912,1.7922,1.7926,1.7924,1.7923,1.7928,1.7933,1.7932,1.7934,1.7941,1.7938,1.791,1.7906,1.7902,1.7898,1.7942,1.7942,1.7967,1.7967,1.7968]}]]